"TOA5","MOW","CPU:UNC_MeetingWaters","DataHourly"
"TIMESTAMP","SondeTempC","SpCond","DOSat","DOmg","pH","Turb","BattVolt_Min"
"TS","","","","","","",""
"","Smp","Smp","Smp","Smp","Smp","Smp","Min"
"2001-07-01 00:00:00",23.6399993896,0.204999998212,-0.300000011921,-0.0299999993294,7.65000009537,6.19999980927,12.6099996567
"2001-07-01 01:00:00",23.4799995422,0.201000005007,-0.300000011921,-0.0299999993294,7.63999986649,6.59999990463,12.5900001526
"2001-07-01 02:00:00",23.2900009155,0.196999996901,-0.300000011921,-0.019999999553,7.63000011444,6.40000009537,12.5699996948
"2001-07-01 03:00:00",23.0799999237,0.196999996901,-0.300000011921,-0.019999999553,7.61999988556,6.59999990463,12.5500001907
"2001-07-01 04:00:00",22.8799991608,0.197999998927,-0.300000011921,-0.019999999553,7.63000011444,6.80000019073,12.529999733
"2001-07-01 05:00:00",22.7099990845,0.201000005007,-0.300000011921,-0.019999999553,7.63000011444,5.90000009537,12.5200004578
"2001-07-01 06:00:00",22.5599994659,0.206000000238,-0.300000011921,-0.019999999553,7.63999986649,5.90000009537,12.5100002289
"2001-07-01 07:00:00",22.4400005341,0.21099999547,-0.300000011921,-0.019999999553,7.65999984741,6.09999990463,12.5100002289
"2001-07-01 08:00:00",22.3700008392,0.209000006318,-0.300000011921,-0.019999999553,7.67999982834,6.09999990463,12.5100002289
"2001-07-01 09:00:00",22.4699993134,0.202999994159,-0.300000011921,-0.019999999553,7.69999980927,6.09999990463,12.8699998856
"2001-07-01 10:00:00",22.6700000763,0.199000000954,-0.300000011921,-0.019999999553,7.73000001907,5.69999980927,13.0900001526
"2001-07-01 11:00:00",23.3199996948,0.197999998927,-0.300000011921,-0.019999999553,7.76999998093,6.0,13.0900001526
"2001-07-01 12:00:00",23.4500007629,0.199000000954,-0.300000011921,-0.019999999553,7.78000020981,5.90000009537,13.0500001907
"2001-07-01 13:00:00",23.7000007629,0.201000005007,-0.300000011921,-0.0299999993294,7.78999996185,5.90000009537,13.0399999619
"2001-07-01 14:00:00",23.8600006104,0.206000000238,-0.300000011921,-0.0299999993294,7.82000017166,5.59999990463,13.0200004578
"2001-07-01 15:00:00",24.3099994659,0.211999997497,-0.300000011921,-0.0299999993294,7.86000013351,5.59999990463,12.9899997711
"2001-07-01 16:00:00",24.6100006104,0.209999993443,-0.300000011921,-0.0299999993294,7.84000015259,5.59999990463,12.9600000381
"2001-07-01 17:00:00",24.4599990845,0.202000007033,-0.300000011921,-0.0299999993294,7.80999994278,5.80000019073,12.9600000381
"2001-07-01 18:00:00",24.2800006866,0.194999992847,-0.300000011921,-0.0299999993294,7.76999998093,5.30000019073,12.8900003433
"2001-07-01 19:00:00",24.0599994659,0.194000005722,-0.300000011921,-0.0299999993294,7.73000001907,5.09999990463,12.779999733
"2001-07-01 20:00:00",23.9200000763,0.197999998927,-0.300000011921,-0.0299999993294,7.71000003815,5.5,12.7299995422
"2001-07-01 21:00:00",23.8099994659,0.204999998212,-0.300000011921,-0.0299999993294,7.69999980927,5.0,12.7100000381
"2001-07-01 22:00:00",23.7099990845,0.21099999547,-0.300000011921,-0.0299999993294,7.69999980927,5.40000009537,12.6800003052
"2001-07-01 23:00:00",23.6000003815,0.21099999547,-0.300000011921,-0.0299999993294,7.69999980927,5.09999990463,12.6599998474
"2001-07-02 00:00:00",23.4599990845,0.208000004292,-0.300000011921,-0.019999999553,7.69999980927,5.5,12.6499996185
"2001-07-02 01:00:00",23.3299999237,0.202000007033,-0.300000011921,-0.019999999553,7.69999980927,5.40000009537,12.6400003433
"2001-07-02 02:00:00",23.1700000763,0.199000000954,-0.300000011921,-0.019999999553,7.69999980927,5.19999980927,12.6300001144
"2001-07-02 03:00:00",23.0100002289,0.20000000298,-0.300000011921,-0.019999999553,7.69000005722,4.80000019073,12.6099996567
"2001-07-02 04:00:00",22.8299999237,0.203999996185,-0.300000011921,-0.019999999553,7.67999982834,5.40000009537,12.5900001526
"2001-07-02 05:00:00",22.6599998474,0.206000000238,-0.300000011921,-0.019999999553,7.69000005722,5.40000009537,12.5799999237
"2001-07-02 06:00:00",22.4599990845,0.21099999547,-0.300000011921,-0.019999999553,7.69000005722,5.5,12.5600004196
"2001-07-02 07:00:00",22.3500003815,0.216000005603,-0.300000011921,-0.019999999553,7.71000003815,5.19999980927,12.5500001907
"2001-07-02 08:00:00",22.3199996948,0.215000003576,-0.300000011921,-0.019999999553,7.71999979019,5.19999980927,12.5500001907
"2001-07-02 09:00:00",22.3799991608,0.208000004292,-0.300000011921,-0.019999999553,7.73000001907,6.19999980927,12.6099996567
"2001-07-02 10:00:00",22.5799999237,0.202000007033,-0.300000011921,-0.019999999553,7.73999977112,5.5,13.1199998856
"2001-07-02 11:00:00",23.0,0.201000005007,-0.300000011921,-0.019999999553,7.78999996185,5.69999980927,13.0799999237
"2001-07-02 12:00:00",23.1000003815,0.203999996185,-0.300000011921,-0.019999999553,7.78999996185,5.30000019073,13.0799999237
"2001-07-02 13:00:00",23.1000003815,0.206000000238,-0.300000011921,-0.019999999553,7.80999994278,5.40000009537,13.0900001526
"2001-07-02 14:00:00",23.3899993896,0.209000006318,-0.300000011921,-0.019999999553,7.86000013351,5.19999980927,13.0900001526
"2001-07-02 15:00:00",23.7299995422,0.212999999523,-0.300000011921,-0.019999999553,7.84999990463,5.19999980927,13.0500001907
"2001-07-02 16:00:00",23.8700008392,0.215000003576,-0.300000011921,-0.019999999553,7.90000009537,5.30000019073,13.029999733
"2001-07-02 17:00:00",23.6700000763,0.216000005603,-0.300000011921,-0.0299999993294,7.86000013351,5.30000019073,13.029999733
"2001-07-02 18:00:00",23.3500003815,0.211999997497,-0.300000011921,-0.0299999993294,7.78999996185,5.5,12.8900003433
"2001-07-02 19:00:00",23.0699996948,0.208000004292,-0.300000011921,-0.0299999993294,7.75,5.30000019073,12.8000001907
"2001-07-02 20:00:00",22.8099994659,0.209000006318,-0.300000011921,-0.0299999993294,7.71999979019,5.30000019073,12.7299995422
"2001-07-02 21:00:00",22.6000003815,0.211999997497,-0.300000011921,-0.019999999553,7.71999979019,5.19999980927,12.6999998093
"2001-07-02 22:00:00",22.3099994659,0.222000002861,-0.300000011921,-0.019999999553,7.71999979019,5.30000019073,12.6700000763
"2001-07-02 23:00:00",22.0400009155,0.233999997377,-0.300000011921,-0.019999999553,7.73000001907,5.19999980927,12.6599998474
"2001-07-03 00:00:00",21.7700004578,0.237000003457,-0.300000011921,-0.019999999553,7.73999977112,4.90000009537,12.6400003433
"2001-07-03 01:00:00",21.4899997711,0.232999995351,-0.300000011921,-0.019999999553,7.71999979019,4.80000019073,12.6199998856
"2001-07-03 02:00:00",21.2700004578,0.224000006914,-0.20000000298,-0.019999999553,7.71000003815,5.40000009537,12.6000003815
"2001-07-03 03:00:00",21.0799999237,0.216000005603,-0.20000000298,-0.019999999553,7.69000005722,5.09999990463,12.6000003815
"2001-07-03 04:00:00",20.9300003052,0.21099999547,-0.20000000298,-0.019999999553,7.67999982834,5.0,12.5799999237
"2001-07-03 05:00:00",20.7700004578,0.209000006318,-0.20000000298,-0.019999999553,7.67000007629,5.0,12.5699996948
"2001-07-03 06:00:00",20.6399993896,0.208000004292,-0.20000000298,-0.019999999553,7.67999982834,4.90000009537,12.5600004196
"2001-07-03 07:00:00",20.5200004578,0.207000002265,-0.20000000298,-0.019999999553,7.69000005722,5.09999990463,12.5399999619
"2001-07-03 08:00:00",20.4200000763,0.208000004292,-0.20000000298,-0.019999999553,7.69999980927,5.80000019073,12.5399999619
"2001-07-03 09:00:00",20.3600006104,0.211999997497,-0.20000000298,-0.019999999553,7.71999979019,5.0,12.5200004578
"2001-07-03 10:00:00",20.3400001526,0.217999994755,-0.20000000298,-0.019999999553,7.69000005722,5.40000009537,12.6700000763
"2001-07-03 11:00:00",20.3400001526,0.219999998808,-0.20000000298,-0.019999999553,7.73999977112,5.30000019073,12.8800001144
"2001-07-03 12:00:00",20.5300006866,0.218999996781,-0.20000000298,-0.019999999553,7.80000019073,4.90000009537,13.220000267
"2001-07-03 13:00:00",21.3400001526,0.221000000834,-0.20000000298,-0.019999999553,7.90000009537,4.69999980927,13.1599998474
"2001-07-03 14:00:00",21.9300003052,0.221000000834,-0.300000011921,-0.019999999553,7.90999984741,4.5,12.9799995422
"2001-07-03 15:00:00",22.0699996948,0.219999998808,-0.300000011921,-0.019999999553,7.88999986649,4.30000019073,13.1000003815
"2001-07-03 16:00:00",22.1299991608,0.221000000834,-0.300000011921,-0.0299999993294,7.86000013351,4.69999980927,13.0900001526
"2001-07-03 17:00:00",22.0699996948,0.22499999404,-0.300000011921,-0.0299999993294,7.86000013351,4.90000009537,13.0699996948
"2001-07-03 18:00:00",22.0799999237,0.228000000119,-0.300000011921,-0.0299999993294,7.84999990463,5.30000019073,12.8800001144
"2001-07-03 19:00:00",22.0499992371,0.228000000119,-0.300000011921,-0.0299999993294,7.80000019073,7.19999980927,12.8000001907
"2001-07-03 20:00:00",22.0499992371,0.230000004172,-0.300000011921,-0.0299999993294,7.75,9.30000019073,12.75
"2001-07-03 21:00:00",22.0400009155,0.238000005484,-0.300000011921,-0.0299999993294,7.71999979019,8.30000019073,12.720000267
"2001-07-03 22:00:00",22.0100002289,0.244000002742,-0.300000011921,-0.019999999553,7.71999979019,7.80000019073,12.6999998093
"2001-07-03 23:00:00",22.0100002289,0.239999994636,-0.300000011921,-0.019999999553,7.71999979019,8.0,12.6899995804
"2001-07-04 00:00:00",21.9699993134,0.226999998093,-0.300000011921,-0.019999999553,7.69999980927,7.40000009537,12.6800003052
"2001-07-04 01:00:00",21.9200000763,0.216999992728,-0.300000011921,-0.019999999553,7.69999980927,6.59999990463,12.6599998474
"2001-07-04 02:00:00",21.8700008392,0.212999999523,-0.300000011921,-0.019999999553,7.67999982834,7.0,12.6400003433
"2001-07-04 03:00:00",21.8099994659,0.217999994755,-0.300000011921,-0.019999999553,7.67999982834,6.5,12.6199998856
"2001-07-04 04:00:00",21.7299995422,0.231999993324,-0.300000011921,-0.019999999553,7.69000005722,5.5,12.6099996567
"2001-07-04 05:00:00",21.6900005341,0.25,-0.300000011921,-0.019999999553,7.71000003815,4.80000019073,12.5900001526
"2001-07-04 06:00:00",21.6700000763,0.263000011444,-0.300000011921,-0.019999999553,7.71999979019,4.59999990463,12.5699996948
"2001-07-04 07:00:00",21.6700000763,0.266999989748,-0.300000011921,-0.019999999553,7.73000001907,4.30000019073,12.5500001907
"2001-07-04 08:00:00",21.7099990845,0.259000003338,-0.300000011921,-0.019999999553,7.71999979019,4.80000019073,12.5600004196
"2001-07-04 09:00:00",21.8500003815,0.246000006795,-0.300000011921,-0.019999999553,7.71999979019,4.59999990463,12.6800003052
"2001-07-04 10:00:00",22.0499992371,0.234999999404,-0.300000011921,-0.019999999553,7.75,4.80000019073,13.029999733
"2001-07-04 11:00:00",22.4699993134,0.231000006199,-0.300000011921,-0.019999999553,7.80000019073,4.80000019073,13.0100002289
"2001-07-04 12:00:00",22.9300003052,0.233999997377,-0.300000011921,-0.019999999553,7.82000017166,4.40000009537,13.0
"2001-07-04 13:00:00",23.2299995422,0.238000005484,-0.300000011921,-0.019999999553,7.88999986649,4.5,13.0500001907
"2001-07-04 14:00:00",23.8299999237,0.241999998689,-0.300000011921,-0.019999999553,7.90999984741,4.30000019073,13.0100002289
"2001-07-04 15:00:00",24.1299991608,0.244000002742,-0.300000011921,-0.019999999553,7.94999980927,4.30000019073,13.0100002289
"2001-07-04 16:00:00",24.1900005341,0.243000000715,-0.300000011921,-0.0299999993294,7.84999990463,4.59999990463,12.970000267
"2001-07-04 17:00:00",24.4400005341,0.240999996662,-0.300000011921,-0.0299999993294,7.88999986649,4.59999990463,12.8800001144
"2001-07-04 18:00:00",23.9599990845,0.226999998093,-0.300000011921,-0.0299999993294,7.88000011444,4.40000009537,12.8900003433
"2001-07-04 19:00:00",23.5599994659,0.223000004888,-0.300000011921,-0.0299999993294,7.80999994278,4.19999980927,12.7600002289
"2001-07-04 20:00:00",23.3999996185,0.223000004888,-0.300000011921,-0.0299999993294,7.76000022888,4.40000009537,12.720000267
"2001-07-04 21:00:00",25.0300006866,0.145999997854,-0.300000011921,-0.019999999553,7.69999980927,203.600006104,12.6999998093
"2001-07-04 22:00:00",24.9899997711,0.0729999989271,-0.300000011921,-0.019999999553,7.53000020981,223.300003052,12.6700000763
"2001-07-04 23:00:00",24.4500007629,0.0529999993742,-0.300000011921,-0.0299999993294,7.34000015259,108.400001526,12.6599998474
"2001-07-05 00:00:00",24.0499992371,0.0540000014007,-0.300000011921,-0.0299999993294,7.26999998093,91.5,12.6400003433
"2001-07-05 01:00:00",23.6700000763,0.0729999989271,-0.300000011921,-0.0299999993294,7.17000007629,67.4000015259,12.6199998856
"2001-07-05 02:00:00",23.4099998474,0.0869999974966,-0.300000011921,-0.0299999993294,7.23000001907,54.5,12.6099996567
"2001-07-05 03:00:00",23.1299991608,0.097999997437,-0.300000011921,-0.0299999993294,7.26000022888,44.4000015259,12.5900001526
"2001-07-05 04:00:00",22.9500007629,0.105999998748,-0.300000011921,-0.0299999993294,7.26999998093,40.7999992371,12.5799999237
"2001-07-05 05:00:00",22.7600002289,0.118000000715,-0.300000011921,-0.0299999993294,7.30000019073,35.0,12.5600004196
"2001-07-05 06:00:00",22.5400009155,0.126000002027,-0.300000011921,-0.0299999993294,7.34000015259,28.3999996185,12.5500001907
"2001-07-05 07:00:00",22.3600006104,0.129999995232,-0.300000011921,-0.019999999553,7.38999986649,22.0,12.529999733
"2001-07-05 08:00:00",22.2700004578,0.134000003338,-0.300000011921,-0.019999999553,7.44999980927,18.7999992371,12.5500001907
"2001-07-05 09:00:00",22.2900009155,0.137999996543,-0.300000011921,-0.019999999553,7.48000001907,16.3999996185,12.8100004196
"2001-07-05 10:00:00",22.4099998474,0.143000006676,-0.300000011921,-0.019999999553,7.51999998093,14.8999996185,13.1899995804
"2001-07-05 11:00:00",22.8099994659,0.146999999881,-0.300000011921,-0.019999999553,7.57999992371,12.5,13.1400003433
"2001-07-05 12:00:00",23.5,0.153999999166,-0.300000011921,-0.019999999553,7.61999988556,10.8999996185,13.0699996948
"2001-07-05 13:00:00",23.9799995422,0.165000006557,-0.300000011921,-0.0299999993294,7.63999986649,10.1999998093,13.0200004578
"2001-07-05 14:00:00",24.2800006866,0.180000007153,-0.300000011921,-0.0299999993294,7.67000007629,9.60000038147,13.029999733
"2001-07-05 15:00:00",24.6800003052,0.190999999642,-0.300000011921,-0.0299999993294,7.69000005722,8.5,12.9899997711
"2001-07-05 16:00:00",24.8099994659,0.196999996901,-0.300000011921,-0.0299999993294,7.69000005722,10.5,12.9600000381
"2001-07-05 17:00:00",24.5599994659,0.195999994874,-0.300000011921,-0.0299999993294,7.63999986649,14.6999998093,12.9499998093
"2001-07-05 18:00:00",24.3099994659,0.193000003695,-0.300000011921,-0.0299999993294,7.59999990463,14.1999998093,12.8599996567
"2001-07-05 19:00:00",24.0900001526,0.192000001669,-0.300000011921,-0.0299999993294,7.57999992371,12.1000003815,12.779999733
"2001-07-05 20:00:00",23.9500007629,0.193000003695,-0.300000011921,-0.0299999993294,7.57000017166,11.1000003815,12.7399997711
"2001-07-05 21:00:00",23.7900009155,0.195999994874,-0.300000011921,-0.0299999993294,7.57000017166,11.3999996185,12.7100000381
"2001-07-05 22:00:00",23.6299991608,0.20000000298,-0.300000011921,-0.0299999993294,7.57999992371,9.80000019073,12.6899995804
"2001-07-05 23:00:00",23.5100002289,0.202999994159,-0.300000011921,-0.0299999993294,7.57999992371,11.3999996185,12.6700000763
"2001-07-06 00:00:00",23.3500003815,0.203999996185,-0.300000011921,-0.0299999993294,7.53999996185,10.6999998093,12.6599998474
"2001-07-06 01:00:00",23.0300006866,0.204999998212,-0.300000011921,-0.0299999993294,7.59999990463,8.19999980927,12.6400003433
"2001-07-06 02:00:00",22.7999992371,0.199000000954,-0.300000011921,-0.019999999553,7.63000011444,8.30000019073,12.6199998856
"2001-07-06 03:00:00",22.5900001526,0.203999996185,-0.300000011921,-0.019999999553,7.61000013351,7.90000009537,12.6000003815
"2001-07-06 04:00:00",22.4200000763,0.201000005007,-0.300000011921,-0.019999999553,7.59999990463,7.69999980927,12.5799999237
"2001-07-06 05:00:00",22.3199996948,0.206000000238,-0.300000011921,-0.019999999553,7.59000015259,7.40000009537,12.5699996948
"2001-07-06 06:00:00",22.1599998474,0.212999999523,-0.300000011921,-0.019999999553,7.59999990463,7.59999990463,12.5500001907
"2001-07-06 07:00:00",22.0699996948,0.203999996185,-0.300000011921,-0.019999999553,7.59000015259,6.80000019073,12.529999733
"2001-07-06 08:00:00",22.0799999237,0.207000002265,-0.300000011921,-0.019999999553,7.61000013351,6.09999990463,12.5500001907
"2001-07-06 09:00:00",22.0900001526,0.209999993443,-0.300000011921,-0.019999999553,7.63000011444,5.59999990463,12.5900001526
"2001-07-06 10:00:00",22.2700004578,0.212999999523,-0.300000011921,-0.019999999553,7.67000007629,6.0,13.0799999237
"2001-07-06 11:00:00",22.4799995422,0.219999998808,-0.300000011921,-0.019999999553,7.71999979019,5.80000019073,13.1199998856
"2001-07-06 12:00:00",22.7800006866,0.219999998808,-0.300000011921,-0.019999999553,7.76000022888,6.0,13.1000003815
"2001-07-06 13:00:00",23.1599998474,0.218999996781,-0.300000011921,-0.019999999553,7.80000019073,5.80000019073,13.0799999237
"2001-07-06 14:00:00",23.5200004578,0.216999992728,-0.300000011921,-0.0299999993294,7.82000017166,5.5,13.0500001907
"2001-07-06 15:00:00",23.9400005341,0.217999994755,-0.300000011921,-0.0299999993294,7.82999992371,5.90000009537,13.0399999619
"2001-07-06 16:00:00",24.1200008392,0.236000001431,-0.300000011921,-0.0299999993294,7.82000017166,5.59999990463,13.0
"2001-07-06 17:00:00",23.9200000763,0.268999993801,-0.300000011921,-0.0299999993294,7.80000019073,5.5,12.8599996567
"2001-07-06 18:00:00",23.6100006104,0.300999999046,-0.300000011921,-0.0299999993294,7.76999998093,5.5,12.8699998856
"2001-07-06 19:00:00",23.2700004578,0.32800000906,-0.300000011921,-0.0299999993294,7.73999977112,5.5,12.7700004578
"2001-07-06 20:00:00",23.1000003815,0.342999994755,-0.300000011921,-0.0299999993294,7.71000003815,6.0,12.7299995422
"2001-07-06 21:00:00",22.8700008392,0.342000007629,-0.300000011921,-0.0299999993294,7.69999980927,6.40000009537,12.6999998093
"2001-07-06 22:00:00",22.5599994659,0.335000008345,-0.300000011921,-0.0299999993294,7.69000005722,7.5,12.6800003052
"2001-07-06 23:00:00",22.2000007629,0.326999992132,-0.300000011921,-0.0299999993294,7.69000005722,5.5,12.6599998474
"2001-07-07 00:00:00",21.8500003815,0.317999988794,-0.300000011921,-0.019999999553,7.69000005722,5.59999990463,12.6400003433
"2001-07-07 01:00:00",21.4400005341,0.307999998331,-0.300000011921,-0.019999999553,7.65999984741,7.69999980927,12.6199998856
"2001-07-07 02:00:00",21.1900005341,0.294999986887,-0.300000011921,-0.019999999553,7.65999984741,7.30000019073,12.6000003815
"2001-07-07 03:00:00",20.9200000763,0.284999996424,-0.300000011921,-0.019999999553,7.63999986649,8.0,12.5799999237
"2001-07-07 04:00:00",20.6100006104,0.277999997139,-0.20000000298,-0.019999999553,7.63000011444,7.90000009537,12.5600004196
"2001-07-07 05:00:00",20.3500003815,0.279000014067,-0.20000000298,-0.019999999553,7.63999986649,7.30000019073,12.5399999619
"2001-07-07 06:00:00",20.0900001526,0.282999992371,-0.20000000298,-0.019999999553,7.65000009537,6.69999980927,12.5100002289
"2001-07-07 07:00:00",19.8400001526,0.28900000453,-0.20000000298,-0.019999999553,7.69000005722,6.59999990463,12.4899997711
"2001-07-07 08:00:00",19.7800006866,0.289999991655,-0.20000000298,-0.019999999553,7.73000001907,6.30000019073,12.5
"2001-07-07 09:00:00",19.9400005341,0.291000008583,-0.20000000298,-0.019999999553,7.76000022888,6.0,12.6000003815
"2001-07-07 10:00:00",20.2700004578,0.287999987602,-0.20000000298,-0.019999999553,7.80000019073,5.69999980927,13.279999733
"2001-07-07 11:00:00",20.9500007629,0.280000001192,-0.20000000298,-0.019999999553,7.88000011444,5.80000019073,13.1899995804
"2001-07-07 12:00:00",21.6900005341,0.273000001907,-0.300000011921,-0.019999999553,7.86999988556,5.69999980927,13.1300001144
"2001-07-07 13:00:00",22.3500003815,0.263999998569,-0.300000011921,-0.019999999553,7.94000005722,5.40000009537,13.0799999237
"2001-07-07 14:00:00",22.9200000763,0.259000003338,-0.300000011921,-0.0299999993294,7.96000003815,5.30000019073,13.0600004196
"2001-07-07 15:00:00",23.3400001526,0.256999999285,-0.300000011921,-0.0299999993294,8.02000045776,5.0,13.0200004578
"2001-07-07 16:00:00",23.4099998474,0.25799998641,-0.300000011921,-0.0299999993294,7.92000007629,4.90000009537,12.9899997711
"2001-07-07 17:00:00",23.2800006866,0.259999990463,-0.300000011921,-0.0299999993294,7.94999980927,4.80000019073,12.9899997711
"2001-07-07 18:00:00",23.0499992371,0.266000002623,-0.300000011921,-0.0299999993294,7.90000009537,5.30000019073,12.8500003815
"2001-07-07 19:00:00",22.6100006104,0.266000002623,-0.300000011921,-0.0299999993294,7.84000015259,7.90000009537,12.7899999619
"2001-07-07 20:00:00",22.3799991608,0.256000012159,-0.300000011921,-0.0299999993294,7.80999994278,10.6999998093,12.75
"2001-07-07 21:00:00",22.2099990845,0.248999997973,-0.300000011921,-0.0299999993294,7.76999998093,9.69999980927,12.720000267
"2001-07-07 22:00:00",22.0499992371,0.25,-0.300000011921,-0.0299999993294,7.75,8.10000038147,12.6999998093
"2001-07-07 23:00:00",21.8899993896,0.250999987125,-0.300000011921,-0.0299999993294,7.73999977112,7.09999990463,12.6800003052
"2001-07-08 00:00:00",21.7199993134,0.252999991179,-0.300000011921,-0.0299999993294,7.73999977112,10.6999998093,12.6599998474
"2001-07-08 01:00:00",21.5200004578,0.256999999285,-0.300000011921,-0.0299999993294,7.73999977112,6.40000009537,12.6400003433
"2001-07-08 02:00:00",21.3700008392,0.259999990463,-0.300000011921,-0.0299999993294,7.73000001907,6.0,12.6199998856
"2001-07-08 03:00:00",21.2800006866,0.261000007391,-0.300000011921,-0.0299999993294,7.73000001907,5.80000019073,12.6000003815
"2001-07-08 04:00:00",21.2099990845,0.259000003338,-0.300000011921,-0.0299999993294,7.73999977112,5.90000009537,12.5900001526
"2001-07-08 05:00:00",21.1200008392,0.252000004053,-0.300000011921,-0.0299999993294,7.73999977112,5.80000019073,12.5699996948
"2001-07-08 06:00:00",21.0900001526,0.248999997973,-0.300000011921,-0.0299999993294,7.71999979019,5.90000009537,12.5500001907
"2001-07-08 07:00:00",21.0699996948,0.248999997973,-0.300000011921,-0.019999999553,7.73000001907,5.59999990463,12.5399999619
"2001-07-08 08:00:00",21.1100006104,0.250999987125,-0.300000011921,-0.019999999553,7.73999977112,5.80000019073,12.5799999237
"2001-07-08 09:00:00",21.2099990845,0.261000007391,-0.300000011921,-0.019999999553,7.76000022888,5.69999980927,12.5699996948
"2001-07-08 10:00:00",23.3500003815,0.0900000035763,-0.300000011921,-0.019999999553,7.69999980927,652.599975586,12.529999733
"2001-07-08 11:00:00",23.2099990845,0.0419999994338,-0.300000011921,-0.0299999993294,7.71999979019,176.699996948,12.529999733
"2001-07-08 12:00:00",22.8600006104,0.0520000010729,-0.40000000596,-0.0299999993294,7.25,103.199996948,12.529999733
"2001-07-08 13:00:00",23.0300006866,0.0590000003576,-0.300000011921,-0.0299999993294,7.25,66.1999969482,12.5500001907
"2001-07-08 14:00:00",23.0499992371,0.0599999986589,-0.300000011921,-0.0299999993294,7.23000001907,43.4000015259,12.6700000763
"2001-07-08 15:00:00",23.0699996948,0.0630000010133,-0.300000011921,-0.0299999993294,7.19000005722,41.0,13.1700000763
"2001-07-08 16:00:00",23.2900009155,0.0670000016689,-0.40000000596,-0.0299999993294,7.21000003815,36.0999984741,13.1199998856
"2001-07-08 17:00:00",23.3500003815,0.0719999969006,-0.40000000596,-0.0299999993294,7.21999979019,31.7999992371,13.1000003815
"2001-07-08 18:00:00",23.3600006104,0.0769999995828,-0.40000000596,-0.0299999993294,7.25,27.7000007629,12.8800001144
"2001-07-08 19:00:00",23.1599998474,0.082999996841,-0.40000000596,-0.0299999993294,7.28000020981,24.6000003815,12.7899999619
"2001-07-08 20:00:00",23.0300006866,0.0890000015497,-0.40000000596,-0.0299999993294,7.28999996185,21.7999992371,12.7399997711
"2001-07-08 21:00:00",22.8999996185,0.0960000008345,-0.300000011921,-0.0299999993294,7.36000013351,18.7000007629,12.7100000381
"2001-07-08 22:00:00",22.75,0.101999998093,-0.300000011921,-0.0299999993294,7.38999986649,16.3999996185,12.6899995804
"2001-07-08 23:00:00",22.6100006104,0.107000000775,-0.40000000596,-0.0299999993294,7.42999982834,14.6999998093,12.6700000763